Grand Marais, MN

3:38 PM CST on December 10, 2019 (GMT -0600)
Grand Marais

Weather History for KGNA - November, 2019

Change the Weather History Date:

Saturday, November 16, 2019

  Actual Average (KCKC) Record (KCKC)
Temperature  
Mean Temperature 34 °F -  
Max Temperature 41 °F 31 °F 42 °F (2004)
Min Temperature 28 °F 20 °F -2 °F (2002)
Degree Days  
Heating Degree Days 30    
Moisture  
Dew Point 29 °F    
Average Humidity 75    
Maximum Humidity 79    
Minimum Humidity 70    
Precipitation  
Precipitation 0.00 in - - ()
Sea Level Pressure  
Sea Level Pressure 30.20 in    
Wind  
Wind Speed 12 mph (SSE)    
Max Wind Speed 17 mph    
Max Gust Speed 17 mph    
Averages and records for this station are not official NWS values.
T = Trace of Precipitation, MM = Missing Value Source: NWS Daily Summary

Daily Weather History Graph

Daily Weather History Graph

Search for Another Location

Airport or City:

Astronomy

Nov. 16, 2019 Rise Set
Actual Time 7:08 AM CST 4:23 PM CST
Civil Twilight 6:34 AM CST 4:57 PM CST
Nautical Twilight 5:56 AM CST 5:34 PM CST
Astronomical Twilight 5:20 AM CST 6:11 PM CST
Moon 7:48 PM CST (11/16) 11:10 AM CST (11/16)
Length of Visible Light 10h 22m
Length of Day
9h 15m
Waning Gibbous, 82% of the Moon is Illuminated
Nov 16
Waning Gibbous
Nov 19
Last Quarter
Nov 26
New
Dec 4
First Quarter
Dec 11
Full

Hourly Weather History & Observations

Time (CST) Temp. Windchill Dew Point Humidity Pressure Visibility Wind Dir Wind Speed Gust Speed Precip Events Conditions
12:56 AM 28.9 °F 18.6 °F 21.9 °F 75% 30.45 in - SE 12.7 mph 17.3 mph N/A   Unknown
1:56 AM 28.9 °F 20.4 °F 23.0 °F 78% 30.42 in - ESE 9.2 mph - N/A   Unknown
2:56 AM 30.0 °F 23.2 °F 24.1 °F 79% 30.39 in - ESE 6.9 mph - N/A   Unknown
3:56 AM 30.9 °F 22.2 °F 25.0 °F 79% 30.37 in - SSE 10.4 mph - N/A   Unknown
4:56 AM 32.0 °F 23.6 °F 26.1 °F 79% 30.36 in - SSE 10.4 mph - N/A   Unknown
5:56 AM 34.0 °F 26.0 °F 25.0 °F 70% 30.34 in - South 10.4 mph - N/A   Unknown
6:56 AM 34.0 °F 27.2 °F 26.1 °F 73% 30.32 in - SSE 8.1 mph - N/A   Unknown
8:56 AM 36.0 °F 29.0 °F 28.0 °F 73% 30.30 in - South 9.2 mph - N/A   Unknown
9:56 AM 37.0 °F 28.9 °F 28.9 °F 73% 30.27 in - South 12.7 mph - N/A   Unknown
12:56 PM 37.9 °F 30.0 °F 30.9 °F 76% 30.19 in - South 12.7 mph - N/A   Unknown
2:56 PM 39.0 °F 31.0 °F 30.9 °F 73% 30.13 in - SSE 13.8 mph - N/A   Unknown
3:56 PM 39.0 °F 31.4 °F 32.0 °F 76% 30.10 in - SSE 12.7 mph - N/A   Unknown
4:56 PM 39.9 °F 32.1 °F 33.1 °F 77% 30.07 in - South 13.8 mph - N/A   Unknown
5:56 PM 39.9 °F 31.8 °F 33.1 °F 77% 30.06 in - South 15.0 mph - N/A   Unknown
7:56 PM 39.9 °F 32.5 °F 33.1 °F 77% 30.03 in - South 12.7 mph - N/A   Unknown
8:56 PM 41.0 °F 32.8 °F 32.0 °F 70% 30.01 in - SSW 16.1 mph - N/A   Unknown
9:56 PM 39.9 °F 31.1 °F 32.0 °F 73% 30.00 in - SSW 17.3 mph - N/A   Unknown
10:56 PM 39.9 °F 31.8 °F 32.0 °F 73% 29.98 in - SSW 15.0 mph - N/A   Unknown
11:56 PM 39.9 °F 31.4 °F 33.1 °F 77% 29.98 in - SSW 16.1 mph - N/A   Unknown